| time (UTC) | temp C | wind direction | speed KPH | gust KPH | rain 1hr cm | rain 24hr cm | rain mn cm | humidity % | barometer mb |
| 20260510071824 | 9 | 99 | 4.8 | 4.8 | 0.00 | 0.00 | 0.00 | 99 | 1011.8 |
| 20260510071320 | 9 | 101 | 0.0 | 3.2 | 0.00 | 0.00 | 0.00 | 99 | 1012.1 |
| 20260510070820 | 9 | 101 | 1.6 | 3.2 | 0.00 | 0.00 | 0.00 | 99 | 1012.2 |
| 20260510070311 | 9 | 103 | 1.6 | 4.8 | 0.00 | 0.00 | 0.00 | 99 | 1012.2 |
| 20260510065810 | 9 | 49 | 0.0 | 3.2 | 0.00 | 0.00 | 0.00 | 99 | 1012.3 |
| 20260510065308 | 9 | 76 | 0.0 | 3.2 | 0.00 | 0.00 | 0.00 | 99 | 1012.4 |
| 20260510064804 | 9 | 135 | 0.0 | 4.8 | 0.00 | 0.00 | 0.00 | 99 | 1012.8 |
| 20260510064302 | 9 | 89 | 1.6 | 3.2 | 0.00 | 0.00 | 0.00 | 99 | 1012.7 |
| 20260510063757 | 9 | 76 | 0.0 | 3.2 | 0.00 | 0.00 | 0.00 | 99 | 1012.7 |
| 20260510063253 | 9 | 48 | 1.6 | 6.4 | 0.00 | 0.00 | 0.00 | 99 | 1012.9 |
| 20260510062751 | 9 | 77 | 1.6 | 3.2 | 0.00 | 0.00 | 0.00 | 99 | 1013.1 |
| 20260510062246 | 9 | 4 | 0.0 | 3.2 | 0.00 | 0.00 | 0.00 | 99 | 1013.4 |
| 20260510061742 | 9 | 41 | 0.0 | 4.8 | 0.00 | 0.00 | 0.00 | 99 | 1013.5 |
| 20260510061239 | 9 | 64 | 3.2 | 4.8 | 0.00 | 0.00 | 0.00 | 99 | 1013.7 |
| 20260510060735 | 9 | 229 | 1.6 | 4.8 | 0.00 | 0.00 | 0.00 | 99 | 1013.8 |
| 20260510060232 | 9 | 28 | 3.2 | 3.2 | 0.00 | 0.00 | 0.00 | 99 | 1013.5 |
| 20260510055729 | 9 | 43 | 4.8 | 12.9 | 0.00 | 0.00 | 0.00 | 99 | 1013.5 |
| 20260510055227 | 8 | 87 | 4.8 | 8.0 | 0.00 | 0.00 | 0.00 | 99 | 1013.5 |
| 20260510054727 | 8 | 0 | 1.6 | 8.0 | 0.00 | 0.00 | 0.00 | 99 | 1013.6 |
| 20260510054223 | 8 | 78 | 3.2 | 4.8 | 0.00 | 0.00 | 0.00 | 99 | 1013.5 |
| 20260510053722 | 8 | 154 | 1.6 | 4.8 | 0.00 | 0.00 | 0.00 | 99 | 1013.3 |
| 20260510053219 | 8 | 72 | 3.2 | 4.8 | 0.00 | 0.00 | 0.00 | 99 | 1013.4 |
| 20260510052715 | 8 | 75 | 3.2 | 4.8 | 0.00 | 0.00 | 0.00 | 99 | 1013.5 |
| 20260510052211 | 8 | 85 | 3.2 | 4.8 | 0.00 | 0.00 | 0.00 | 99 | 1013.3 |
| 20260510051707 | 8 | 182 | 1.6 | 6.4 | 0.00 | 0.00 | 0.00 | 99 | 1013.0 |
| 20260510051204 | 8 | 135 | 0.0 | 3.2 | 0.00 | 0.00 | 0.00 | 99 | 1013.1 |
| 20260510050701 | 8 | 261 | 0.0 | 3.2 | 0.00 | 0.00 | 0.00 | 99 | 1013.2 |
| 20260510050158 | 8 | 354 | 3.2 | 4.8 | 0.00 | 0.00 | 0.00 | 99 | 1013.0 |
| 20260510045655 | 8 | 10 | 3.2 | 6.4 | 0.00 | 0.00 | 0.00 | 99 | 1012.8 |
| 20260510045152 | 8 | 40 | 3.2 | 6.4 | 0.00 | 0.00 | 0.00 | 99 | 1012.9 |
| 20260510044648 | 8 | 47 | 1.6 | 4.8 | 0.00 | 0.00 | 0.00 | 99 | 1012.7 |
| 20260510044145 | 8 | 72 | 4.8 | 6.4 | 0.00 | 0.00 | 0.00 | 99 | 1012.7 |
| 20260510043641 | 8 | 68 | 3.2 | 4.8 | 0.00 | 0.00 | 0.00 | 99 | 1012.6 |
| 20260510043137 | 8 | 89 | 4.8 | 6.4 | 0.00 | 0.00 | 0.00 | 99 | 1012.3 |
| 20260510042635 | 8 | 120 | 0.0 | 4.8 | 0.00 | 0.00 | 0.00 | 99 | 1012.6 |
| 20260510042131 | 8 | 153 | 0.0 | 6.4 | 0.00 | 0.00 | 0.00 | 99 | 1012.5 |
| 20260510041628 | 8 | 100 | 4.8 | 4.8 | 0.00 | 0.00 | 0.00 | 99 | 1012.3 |
| 20260510041125 | 8 | 125 | 1.6 | 4.8 | 0.00 | 0.00 | 0.00 | 99 | 1012.1 |
| 20260510040623 | 8 | 80 | 3.2 | 4.8 | 0.00 | 0.00 | 0.00 | 99 | 1011.9 |
| 20260510040119 | 8 | 124 | 1.6 | 4.8 | 0.00 | 0.00 | 0.00 | 99 | 1011.8 |
| 20260510035615 | 8 | 105 | 3.2 | 4.8 | 0.00 | 0.00 | 0.00 | 99 | 1011.7 |
| 20260510035114 | 7 | 103 | 3.2 | 4.8 | 0.00 | 0.00 | 0.00 | 99 | 1011.7 |
| 20260510034612 | 8 | 93 | 0.0 | 3.2 | 0.00 | 0.00 | 0.00 | 99 | 1011.6 |
| 20260510034109 | 8 | 167 | 3.2 | 3.2 | 0.00 | 0.00 | 0.00 | 99 | 1011.9 |
| 20260510033606 | 8 | 87 | 3.2 | 4.8 | 0.00 | 0.00 | 0.00 | 99 | 1011.7 |
| 20260510033103 | 7 | 199 | 0.0 | 3.2 | 0.00 | 0.00 | 0.00 | 99 | 1011.8 |
| 20260510032559 | 8 | 157 | 3.2 | 4.8 | 0.00 | 0.00 | 0.00 | 99 | 1011.9 |
| 20260510032055 | 8 | 63 | 0.0 | 3.2 | 0.00 | 0.00 | 0.00 | 99 | 1011.7 |
| 20260510031550 | 8 | 105 | 3.2 | 3.2 | 0.00 | 0.00 | 0.00 | 99 | 1011.9 |
| 20260510031047 | 8 | 224 | 0.0 | 3.2 | 0.00 | 0.00 | 0.00 | 99 | 1011.8 |
| 20260510030542 | 8 | 103 | 0.0 | 4.8 | 0.00 | 0.00 | 0.00 | 99 | 1011.7 |
| 20260510030040 | 8 | 124 | 0.0 | 1.6 | 0.00 | 0.00 | 0.00 | 99 | 1011.7 |
| 20260510025537 | 8 | 186 | 0.0 | 0.0 | 0.00 | 0.00 | 0.00 | 99 | 1011.8 |
| 20260510025035 | 8 | 126 | 1.6 | 4.8 | 0.00 | 0.00 | 0.00 | 99 | 1011.7 |
| 20260510024531 | 8 | 95 | 3.2 | 4.8 | 0.00 | 0.00 | 0.00 | 99 | 1011.8 |
| 20260510024027 | 8 | 230 | 0.0 | 1.6 | 0.00 | 0.00 | 0.00 | 99 | 1011.9 |
| 20260510023523 | 8 | 75 | 0.0 | 1.6 | 0.00 | 0.00 | 0.00 | 99 | 1011.8 |
| 20260510023021 | 8 | 75 | 0.0 | 1.6 | 0.00 | 0.00 | 0.00 | 99 | 1011.7 |
| 20260510022520 | 8 | 67 | 0.0 | 1.6 | 0.00 | 0.00 | 0.00 | 99 | 1011.7 |
| 20260510022020 | 8 | 117 | 3.2 | 3.2 | 0.00 | 0.00 | 0.00 | 99 | 1012.0 |
| 20260510021517 | 8 | 124 | 3.2 | 4.8 | 0.00 | 0.00 | 0.00 | 99 | 1011.8 |
| 20260510021014 | 8 | 166 | 0.0 | 3.2 | 0.00 | 0.00 | 0.00 | 99 | 1011.8 |
| 20260510020508 | 8 | 89 | 0.0 | 3.2 | 0.00 | 0.00 | 0.00 | 99 | 1011.7 |
| 20260510020004 | 8 | 55 | 0.0 | 3.2 | 0.00 | 0.00 | 0.00 | 99 | 1011.6 |
| 20260510015459 | 8 | 94 | 1.6 | 3.2 | 0.00 | 0.00 | 0.00 | 99 | 1011.7 |
| 20260510014955 | 8 | 39 | 1.6 | 3.2 | 0.00 | 0.00 | 0.00 | 99 | 1011.7 |
| 20260510014453 | 8 | 103 | 1.6 | 3.2 | 0.00 | 0.00 | 0.00 | 99 | 1011.6 |
| 20260510013949 | 8 | 141 | 0.0 | 3.2 | 0.00 | 0.00 | 0.00 | 99 | 1011.7 |
| 20260510013444 | 8 | 73 | 3.2 | 4.8 | 0.00 | 0.00 | 0.00 | 99 | 1011.6 |
| 20260510012940 | 9 | 128 | 3.2 | 3.2 | 0.00 | 0.00 | 0.00 | 99 | 1011.5 |
| 20260510012435 | 9 | 122 | 3.2 | 3.2 | 0.00 | 0.00 | 0.00 | 99 | 1011.6 |
| 20260510011930 | 9 | 118 | 0.0 | 4.8 | 0.00 | 0.00 | 0.00 | 99 | 1011.4 |
| 20260510011425 | 10 | 205 | 3.2 | 4.8 | 0.00 | 0.00 | 0.00 | 99 | 1011.2 |
| 20260510010921 | 10 | 110 | 0.0 | 3.2 | 0.00 | 0.00 | 0.00 | 99 | 1011.2 |
| 20260510010419 | 10 | 208 | 1.6 | 4.8 | 0.00 | 0.00 | 0.00 | 99 | 1011.4 |
| 20260510005916 | 10 | 177 | 1.6 | 3.2 | 0.00 | 0.00 | 0.00 | 99 | 1011.4 |
| 20260510005412 | 10 | 112 | 3.2 | 3.2 | 0.00 | 0.00 | 0.00 | 99 | 1011.1 |
| 20260510004909 | 10 | 196 | 1.6 | 4.8 | 0.00 | 0.00 | 0.00 | 99 | 1011.1 |
| 20260510004407 | 10 | 165 | 0.0 | 6.4 | 0.00 | 0.00 | 0.00 | 99 | 1011.1 |
| 20260510003904 | 10 | 159 | 3.2 | 4.8 | 0.00 | 0.00 | 0.00 | 99 | 1010.9 |
| 20260510003401 | 11 | 190 | 3.2 | 4.8 | 0.00 | 0.00 | 0.00 | 99 | 1011.0 |
| 20260510002900 | 11 | 207 | 1.6 | 4.8 | 0.00 | 0.00 | 0.00 | 99 | 1011.0 |
| 20260510002358 | 11 | 117 | 0.0 | 1.6 | 0.00 | 0.00 | 0.00 | 99 | 1011.1 |
| 20260510001854 | 11 | 147 | 0.0 | 3.2 | 0.00 | 0.00 | 0.00 | 99 | 1011.1 |
| 20260510001352 | 11 | 119 | 0.0 | 1.6 | 0.00 | 0.00 | 0.00 | 99 | 1011.0 |
| 20260510000848 | 11 | 50 | 0.0 | 1.6 | 0.00 | 0.00 | 0.00 | 99 | 1011.0 |
| 20260510000345 | 12 | 49 | 0.0 | 0.0 | 0.00 | 0.00 | 0.00 | 98 | 1011.1 |
| 20260509235842 | 12 | 84 | 1.6 | 3.2 | 0.00 | 0.00 | 0.00 | 97 | 1011.1 |
| 20260509235338 | 12 | 69 | 0.0 | 1.6 | 0.00 | 0.00 | 0.00 | 97 | 1011.1 |
| 20260509234834 | 12 | 87 | 1.6 | 3.2 | 0.00 | 0.00 | 0.00 | 96 | 1011.0 |
| 20260509234331 | 12 | 88 | 4.8 | 4.8 | 0.00 | 0.00 | 0.00 | 95 | 1010.7 |
| 20260509233830 | 13 | 140 | 0.0 | 6.4 | 0.00 | 0.00 | 0.00 | 95 | 1010.8 |
| 20260509233327 | 13 | 256 | 3.2 | 6.4 | 0.00 | 0.00 | 0.00 | 94 | 1010.8 |
| 20260509232822 | 13 | 220 | 3.2 | 4.8 | 0.00 | 0.00 | 0.00 | 94 | 1010.8 |
| 20260509232320 | 13 | 167 | 1.6 | 8.0 | 0.00 | 0.00 | 0.00 | 93 | 1010.6 |
| 20260509231816 | 13 | 37 | 3.2 | 6.4 | 0.00 | 0.00 | 0.00 | 92 | 1010.4 |
| 20260509231313 | 13 | 97 | 0.0 | 9.7 | 0.00 | 0.00 | 0.00 | 91 | 1010.6 |
| 20260509230811 | 13 | 65 | 4.8 | 12.9 | 0.00 | 0.00 | 0.00 | 91 | 1010.5 |
| 20260509230308 | 14 | 330 | 3.2 | 11.3 | 0.00 | 0.00 | 0.00 | 89 | 1010.4 |
| 20260509225802 | 16 | 197 | 4.8 | 11.3 | 0.00 | 0.00 | 0.00 | 83 | 1010.6 |
| 20260509225300 | 16 | 165 | 8.0 | 12.9 | 0.00 | 0.00 | 0.00 | 82 | 1010.5 |
| 20260509224755 | 16 | 102 | 3.2 | 8.0 | 0.00 | 0.00 | 0.00 | 82 | 1010.6 |
| 20260509224252 | 16 | 92 | 4.8 | 11.3 | 0.00 | 0.00 | 0.00 | 84 | 1010.5 |
| 20260509223749 | 15 | 83 | 9.7 | 14.5 | 0.00 | 0.00 | 0.00 | 86 | 1010.5 |
| 20260509223246 | 15 | 213 | 8.0 | 11.3 | 0.00 | 0.00 | 0.00 | 85 | 1010.5 |
| 20260509222743 | 15 | 102 | 4.8 | 17.7 | 0.00 | 0.00 | 0.00 | 86 | 1010.6 |
| 20260509222238 | 15 | 123 | 6.4 | 14.5 | 0.00 | 0.00 | 0.00 | 86 | 1010.8 |
| 20260509221734 | 16 | 118 | 8.0 | 11.3 | 0.00 | 0.00 | 0.00 | 86 | 1010.9 |
| 20260509221231 | 15 | 79 | 4.8 | 11.3 | 0.00 | 0.00 | 0.00 | 87 | 1010.8 |
| 20260509220726 | 15 | 125 | 8.0 | 16.1 | 0.00 | 0.00 | 0.00 | 89 | 1010.6 |
| 20260509220223 | 15 | 108 | 8.0 | 14.5 | 0.00 | 0.00 | 0.00 | 87 | 1010.8 |
| 20260509215719 | 15 | 118 | 9.7 | 14.5 | 0.00 | 0.00 | 0.00 | 89 | 1010.7 |
| 20260509215215 | 14 | 180 | 1.6 | 16.1 | 0.00 | 0.00 | 0.00 | 90 | 1010.7 |
| 20260509214713 | 15 | 92 | 6.4 | 12.9 | 0.00 | 0.00 | 0.00 | 90 | 1010.8 |
| 20260509214210 | 14 | 66 | 3.2 | 14.5 | 0.00 | 0.00 | 0.00 | 92 | 1010.9 |
| 20260509213707 | 13 | 109 | 3.2 | 9.7 | 0.00 | 0.00 | 0.00 | 94 | 1011.2 |
| 20260509213202 | 13 | 83 | 6.4 | 12.9 | 0.00 | 0.00 | 0.00 | 95 | 1011.0 |
| 20260509212700 | 13 | 229 | 6.4 | 19.3 | 0.00 | 0.00 | 0.00 | 96 | 1010.9 |
| 20260509212156 | 13 | 103 | 1.6 | 6.4 | 0.00 | 0.00 | 0.00 | 96 | 1011.0 |
| 20260509211652 | 12 | 151 | 3.2 | 14.5 | 0.00 | 0.00 | 0.00 | 97 | 1011.1 |
| 20260509211149 | 12 | 342 | 1.6 | 9.7 | 0.00 | 0.00 | 0.00 | 98 | 1011.1 |
| 20260509210646 | 12 | 94 | 0.0 | 9.7 | 0.00 | 0.00 | 0.00 | 99 | 1011.1 |
| 20260509210143 | 12 | 122 | 4.8 | 12.9 | 0.00 | 0.00 | 0.00 | 99 | 1011.5 |
| 20260509205638 | 12 | 103 | 4.8 | 12.9 | 0.00 | 0.00 | 0.00 | 99 | 1011.5 |
| 20260509205132 | 12 | 290 | 3.2 | 11.3 | 0.00 | 0.00 | 0.00 | 99 | 1011.5 |
| 20260509204629 | 12 | 84 | 6.4 | 12.9 | 0.00 | 0.00 | 0.00 | 99 | 1011.6 |
| 20260509204125 | 12 | 119 | 3.2 | 16.1 | 0.00 | 0.00 | 0.00 | 99 | 1011.6 |
| 20260509203621 | 12 | 118 | 9.7 | 20.9 | 0.00 | 0.00 | 0.00 | 99 | 1011.7 |
| 20260509203120 | 12 | 124 | 6.4 | 11.3 | 0.00 | 0.00 | 0.00 | 99 | 1011.7 |
| 20260509202619 | 12 | 50 | 0.0 | 11.3 | 0.00 | 0.00 | 0.00 | 99 | 1011.6 |
| 20260509202115 | 12 | 115 | 6.4 | 12.9 | 0.00 | 0.00 | 0.00 | 99 | 1011.6 |
| 20260509201610 | 12 | 41 | 4.8 | 8.0 | 0.00 | 0.00 | 0.00 | 99 | 1011.5 |
| 20260509201109 | 12 | 129 | 1.6 | 9.7 | 0.00 | 0.00 | 0.00 | 99 | 1011.5 |
| 20260509200609 | 12 | 50 | 4.8 | 9.7 | 0.00 | 0.00 | 0.00 | 99 | 1011.4 |
| 20260509200104 | 11 | 103 | 3.2 | 12.9 | 0.00 | 0.00 | 0.00 | 99 | 1011.4 |
| 20260509195600 | 11 | 108 | 4.8 | 8.0 | 0.00 | 0.00 | 0.00 | 99 | 1011.3 |
| 20260509195055 | 11 | 187 | 0.0 | 8.0 | 0.00 | 0.00 | 0.00 | 99 | 1011.4 |
| 20260509194555 | 11 | 79 | 4.8 | 8.0 | 0.00 | 0.00 | 0.00 | 99 | 1011.5 |
| 20260509194053 | 11 | 106 | 4.8 | 8.0 | 0.00 | 0.00 | 0.00 | 99 | 1011.8 |
| 20260509193549 | 11 | 117 | 3.2 | 9.7 | 0.00 | 0.00 | 0.00 | 99 | 1011.8 |
| 20260509193045 | 11 | 113 | 4.8 | 9.7 | 0.00 | 0.00 | 0.00 | 99 | 1011.8 |
| 20260509192542 | 11 | 65 | 4.8 | 8.0 | 0.00 | 0.00 | 0.00 | 99 | 1011.9 |
| 20260509192037 | 11 | 337 | 0.0 | 6.4 | 0.00 | 0.00 | 0.00 | 99 | 1012.2 |
| 20260509191537 | 11 | 119 | 0.0 | 8.0 | 0.00 | 0.00 | 0.00 | 99 | 1012.4 |
| 20260509191033 | 11 | 103 | 1.6 | 8.0 | 0.00 | 0.00 | 0.00 | 99 | 1012.3 |
| 20260509190530 | 11 | 105 | 4.8 | 12.9 | 0.00 | 0.00 | 0.00 | 99 | 1012.3 |
| 20260509190028 | 11 | 168 | 1.6 | 6.4 | 0.00 | 0.00 | 0.00 | 99 | 1012.6 |
| 20260509185525 | 11 | 94 | 4.8 | 8.0 | 0.00 | 0.00 | 0.00 | 99 | 1012.3 |
| 20260509185021 | 11 | 139 | 8.0 | 11.3 | 0.00 | 0.00 | 0.00 | 99 | 1012.4 |
| 20260509184520 | 11 | 84 | 3.2 | 8.0 | 0.00 | 0.00 | 0.00 | 99 | 1012.6 |
| 20260509184016 | 11 | 334 | 1.6 | 9.7 | 0.00 | 0.00 | 0.00 | 99 | 1012.5 |
| 20260509183511 | 11 | 158 | 1.6 | 8.0 | 0.00 | 0.00 | 0.00 | 99 | 1012.6 |
| 20260509183007 | 11 | 134 | 3.2 | 9.7 | 0.00 | 0.00 | 0.00 | 99 | 1012.4 |
| 20260509182503 | 11 | 96 | 1.6 | 8.0 | 0.00 | 0.00 | 0.00 | 99 | 1012.6 |
| 20260509182001 | 11 | 58 | 4.8 | 8.0 | 0.00 | 0.00 | 0.00 | 99 | 1012.6 |
| 20260509181459 | 11 | 86 | 6.4 | 9.7 | 0.00 | 0.00 | 0.00 | 99 | 1012.6 |
| 20260509180956 | 11 | 208 | 6.4 | 11.3 | 0.00 | 0.00 | 0.00 | 99 | 1012.7 |
| 20260509180451 | 11 | 112 | 6.4 | 11.3 | 0.00 | 0.00 | 0.00 | 99 | 1012.5 |
| 20260509175949 | 11 | 102 | 4.8 | 8.0 | 0.00 | 0.00 | 0.00 | 99 | 1012.6 |
| 20260509175444 | 11 | 161 | 3.2 | 9.7 | 0.00 | 0.00 | 0.00 | 99 | 1012.4 |
| 20260509174941 | 11 | 81 | 0.0 | 9.7 | 0.00 | 0.00 | 0.00 | 99 | 1012.5 |
| 20260509174437 | 11 | 105 | 4.8 | 9.7 | 0.00 | 0.00 | 0.00 | 99 | 1012.4 |
| 20260509173933 | 11 | 56 | 1.6 | 12.9 | 0.00 | 0.00 | 0.00 | 99 | 1012.4 |
| 20260509173432 | 11 | 123 | 3.2 | 9.7 | 0.00 | 0.00 | 0.00 | 99 | 1012.6 |
| 20260509172929 | 11 | 113 | 0.0 | 8.0 | 0.00 | 0.00 | 0.00 | 99 | 1012.5 |
| 20260509172426 | 11 | 142 | 8.0 | 12.9 | 0.00 | 0.00 | 0.00 | 99 | 1012.3 |
| 20260509171922 | 11 | 165 | 3.2 | 14.5 | 0.00 | 0.00 | 0.00 | 99 | 1012.5 |
| 20260509171418 | 11 | 155 | 3.2 | 11.3 | 0.00 | 0.00 | 0.00 | 99 | 1012.4 |
| 20260509170915 | 11 | 76 | 0.0 | 8.0 | 0.00 | 0.00 | 0.00 | 99 | 1012.5 |
| 20260509170410 | 11 | 138 | 3.2 | 11.3 | 0.00 | 0.00 | 0.00 | 99 | 1012.5 |
| 20260509165907 | 11 | 137 | 0.0 | 8.0 | 0.00 | 0.00 | 0.00 | 99 | 1012.3 |
| 20260509165400 | 11 | 154 | 0.0 | 8.0 | 0.00 | 0.00 | 0.00 | 99 | 1012.5 |
| 20260509164856 | 11 | 234 | 1.6 | 4.8 | 0.00 | 0.00 | 0.00 | 99 | 1012.4 |
| 20260509164353 | 11 | 322 | 3.2 | 4.8 | 0.00 | 0.00 | 0.00 | 99 | 1012.5 |
| 20260509163849 | 11 | 229 | 3.2 | 8.0 | 0.00 | 0.00 | 0.00 | 99 | 1012.4 |
| 20260509163346 | 11 | 274 | 1.6 | 4.8 | 0.00 | 0.00 | 0.00 | 99 | 1012.4 |
| 20260509162845 | 11 | 234 | 0.0 | 14.5 | 0.00 | 0.00 | 0.00 | 99 | 1012.7 |
| 20260509162338 | 11 | 51 | 12.9 | 14.5 | 0.00 | 0.00 | 0.00 | 99 | 1012.6 |
| 20260509161834 | 11 | 51 | 12.9 | 14.5 | 0.00 | 0.00 | 0.00 | 99 | 1012.6 |
| 20260509161331 | 11 | 51 | 12.9 | 14.5 | 0.00 | 0.00 | 0.00 | 99 | 1012.7 |
| 20260509160827 | 11 | 51 | 12.9 | 14.5 | 0.00 | 0.00 | 0.00 | 99 | 1012.6 |
| 20260509160323 | 11 | 51 | 12.9 | 14.5 | 0.00 | 0.00 | 0.00 | 99 | 1012.6 |
| 20260509155818 | 11 | 81 | 6.4 | 16.1 | 0.00 | 0.00 | 0.00 | 99 | 1012.5 |
| 20260509155315 | 11 | 129 | 3.2 | 12.9 | 0.00 | 0.00 | 0.00 | 99 | 1012.6 |
| 20260509154811 | 11 | 99 | 4.8 | 12.9 | 0.00 | 0.00 | 0.00 | 99 | 1012.8 |
| 20260509154308 | 11 | 105 | 9.7 | 12.9 | 0.00 | 0.00 | 0.00 | 99 | 1012.5 |
| 20260509153805 | 11 | 49 | 4.8 | 9.7 | 0.00 | 0.00 | 0.00 | 99 | 1012.6 |
| 20260509153301 | 11 | 103 | 8.0 | 9.7 | 0.00 | 0.00 | 0.00 | 99 | 1012.6 |
| 20260509152758 | 11 | 121 | 6.4 | 11.3 | 0.00 | 0.00 | 0.00 | 99 | 1012.9 |
| 20260509152254 | 11 | 53 | 3.2 | 9.7 | 0.00 | 0.00 | 0.00 | 99 | 1012.7 |
| 20260509151751 | 11 | 108 | 4.8 | 8.0 | 0.00 | 0.00 | 0.00 | 99 | 1012.8 |
| 20260509151247 | 11 | 39 | 0.0 | 6.4 | 0.00 | 0.00 | 0.00 | 99 | 1012.9 |
| 20260509150745 | 11 | 117 | 4.8 | 6.4 | 0.00 | 0.00 | 0.00 | 99 | 1012.7 |
| 20260509150238 | 11 | 72 | 3.2 | 6.4 | 0.00 | 0.00 | 0.00 | 99 | 1012.9 |
| 20260509145735 | 10 | 96 | 0.0 | 4.8 | 0.00 | 0.00 | 0.00 | 99 | 1012.8 |
| 20260509145234 | 10 | 263 | 1.6 | 3.2 | 0.00 | 0.00 | 0.00 | 99 | 1012.9 |
| 20260509144732 | 10 | 89 | 4.8 | 6.4 | 0.00 | 0.00 | 0.00 | 99 | 1012.6 |
| 20260509144228 | 10 | 93 | 1.6 | 3.2 | 0.00 | 0.00 | 0.00 | 99 | 1013.1 |
| 20260509143725 | 10 | 61 | 1.6 | 6.4 | 0.00 | 0.00 | 0.00 | 99 | 1012.8 |
| 20260509143223 | 10 | 46 | 4.8 | 4.8 | 0.00 | 0.00 | 0.00 | 99 | 1013.0 |
| 20260509142718 | 10 | 114 | 3.2 | 9.7 | 0.00 | 0.00 | 0.00 | 99 | 1013.3 |
| 20260509142215 | 10 | 109 | 3.2 | 4.8 | 0.00 | 0.00 | 0.00 | 99 | 1013.2 |
| 20260509141711 | 10 | 58 | 3.2 | 6.4 | 0.00 | 0.00 | 0.00 | 99 | 1013.0 |
| 20260509141208 | 10 | 95 | 9.7 | 9.7 | 0.00 | 0.00 | 0.00 | 99 | 1013.1 |
| 20260509140704 | 10 | 28 | 0.0 | 6.4 | 0.00 | 0.00 | 0.00 | 99 | 1013.0 |
| 20260509140202 | 10 | 6 | 0.0 | 6.4 | 0.00 | 0.00 | 0.00 | 99 | 1013.0 |
| 20260509135659 | 10 | 233 | 0.0 | 8.0 | 0.00 | 0.00 | 0.00 | 99 | 1012.9 |
| 20260509135157 | 10 | 30 | 1.6 | 6.4 | 0.00 | 0.00 | 0.00 | 99 | 1013.2 |
| 20260509134653 | 10 | 58 | 4.8 | 6.4 | 0.00 | 0.00 | 0.00 | 99 | 1013.0 |
| 20260509134151 | 10 | 112 | 4.8 | 8.0 | 0.00 | 0.00 | 0.00 | 99 | 1012.9 |
| 20260509133648 | 10 | 232 | 0.0 | 3.2 | 0.00 | 0.00 | 0.00 | 99 | 1012.9 |
| 20260509133145 | 10 | 13 | 0.0 | 3.2 | 0.00 | 0.00 | 0.00 | 99 | 1012.9 |
| 20260509132643 | 10 | 102 | 0.0 | 3.2 | 0.00 | 0.00 | 0.00 | 99 | 1012.9 |
| 20260509132141 | 10 | 298 | 1.6 | 3.2 | 0.00 | 0.00 | 0.00 | 99 | 1012.9 |
| 20260509131637 | 10 | 218 | 0.0 | 4.8 | 0.00 | 0.00 | 0.00 | 99 | 1012.9 |
| 20260509131134 | 10 | 164 | 0.0 | 1.6 | 0.00 | 0.00 | 0.00 | 99 | 1012.7 |
| 20260509130630 | 10 | 89 | 1.6 | 6.4 | 0.00 | 0.00 | 0.00 | 99 | 1012.8 |
| 20260509130127 | 10 | 62 | 3.2 | 6.4 | 0.00 | 0.00 | 0.00 | 99 | 1012.9 |
| 20260509125623 | 10 | 45 | 3.2 | 4.8 | 0.00 | 0.00 | 0.00 | 99 | 1012.6 |
| 20260509125120 | 10 | 73 | 4.8 | 9.7 | 0.00 | 0.00 | 0.00 | 99 | 1012.7 |
| 20260509124616 | 10 | 333 | 3.2 | 6.4 | 0.00 | 0.00 | 0.00 | 99 | 1012.6 |
| 20260509124114 | 10 | 53 | 3.2 | 4.8 | 0.00 | 0.00 | 0.00 | 99 | 1012.6 |
| 20260509123612 | 10 | 60 | 4.8 | 4.8 | 0.00 | 0.00 | 0.00 | 99 | 1012.5 |
| 20260509123108 | 9 | 50 | 3.2 | 4.8 | 0.00 | 0.00 | 0.00 | 99 | 1012.6 |
| 20260509122604 | 9 | 29 | 0.0 | 6.4 | 0.00 | 0.00 | 0.00 | 99 | 1012.3 |
| 20260509122102 | 9 | 27 | 1.6 | 4.8 | 0.00 | 0.00 | 0.00 | 99 | 1012.6 |
| 20260509121558 | 9 | 322 | 0.0 | 4.8 | 0.00 | 0.00 | 0.00 | 99 | 1012.7 |
| 20260509121056 | 9 | 309 | 0.0 | 4.8 | 0.00 | 0.00 | 0.00 | 99 | 1012.7 |
| 20260509120554 | 9 | 50 | 0.0 | 3.2 | 0.00 | 0.00 | 0.00 | 99 | 1012.5 |
| 20260509120052 | 9 | 248 | 0.0 | 3.2 | 0.00 | 0.00 | 0.00 | 99 | 1012.7 |
| 20260509115548 | 9 | 16 | 0.0 | 3.2 | 0.00 | 0.00 | 0.00 | 99 | 1013.0 |
| 20260509115046 | 9 | 252 | 0.0 | 3.2 | 0.00 | 0.00 | 0.00 | 99 | 1012.7 |
| 20260509114544 | 8 | 49 | 0.0 | 4.8 | 0.00 | 0.00 | 0.00 | 99 | 1012.9 |
| 20260509114043 | 9 | 304 | 3.2 | 6.4 | 0.00 | 0.00 | 0.00 | 99 | 1012.8 |
| 20260509113540 | 9 | 119 | 0.0 | 4.8 | 0.00 | 0.00 | 0.00 | 99 | 1013.0 |
| 20260509113038 | 9 | 52 | 3.2 | 4.8 | 0.00 | 0.00 | 0.00 | 99 | 1012.9 |
| 20260509112534 | 9 | 223 | 1.6 | 4.8 | 0.00 | 0.00 | 0.00 | 99 | 1013.0 |
| 20260509112031 | 8 | 125 | 1.6 | 4.8 | 0.00 | 0.00 | 0.00 | 99 | 1012.9 |
| 20260509111528 | 9 | 26 | 3.2 | 4.8 | 0.00 | 0.00 | 0.00 | 99 | 1013.0 |
| 20260509111025 | 8 | 82 | 3.2 | 4.8 | 0.00 | 0.00 | 0.00 | 99 | 1013.1 |
| 20260509110522 | 9 | 74 | 4.8 | 6.4 | 0.00 | 0.00 | 0.00 | 99 | 1013.0 |
| 20260509110019 | 9 | 129 | 1.6 | 6.4 | 0.00 | 0.00 | 0.00 | 99 | 1013.1 |
| 20260509105518 | 8 | 26 | 0.0 | 4.8 | 0.00 | 0.00 | 0.00 | 99 | 1012.9 |
| 20260509105015 | 8 | 54 | 3.2 | 4.8 | 0.00 | 0.00 | 0.00 | 99 | 1013.1 |
| 20260509104512 | 8 | 99 | 1.6 | 3.2 | 0.00 | 0.00 | 0.00 | 99 | 1013.0 |
| 20260509104009 | 8 | 69 | 3.2 | 4.8 | 0.00 | 0.00 | 0.00 | 99 | 1013.0 |
| 20260509103507 | 8 | 54 | 1.6 | 4.8 | 0.00 | 0.00 | 0.00 | 99 | 1012.9 |
| 20260509103004 | 8 | 256 | 0.0 | 4.8 | 0.00 | 0.00 | 0.00 | 99 | 1012.8 |
| 20260509102502 | 8 | 50 | 1.6 | 4.8 | 0.00 | 0.00 | 0.00 | 99 | 1013.1 |
| 20260509101958 | 8 | 24 | 4.8 | 4.8 | 0.00 | 0.00 | 0.00 | 99 | 1013.0 |
| 20260509101454 | 8 | 33 | 3.2 | 6.4 | 0.00 | 0.00 | 0.00 | 99 | 1013.0 |
| 20260509100951 | 8 | 42 | 3.2 | 4.8 | 0.00 | 0.00 | 0.00 | 99 | 1013.1 |
| 20260509100448 | 8 | 73 | 1.6 | 4.8 | 0.00 | 0.00 | 0.00 | 99 | 1012.8 |
| 20260509095945 | 8 | 87 | 1.6 | 4.8 | 0.00 | 0.00 | 0.00 | 99 | 1012.9 |
| 20260509095442 | 8 | 70 | 3.2 | 4.8 | 0.00 | 0.00 | 0.00 | 99 | 1012.8 |
| 20260509094939 | 8 | 48 | 3.2 | 4.8 | 0.00 | 0.00 | 0.00 | 99 | 1012.8 |
| 20260509094435 | 8 | 58 | 1.6 | 4.8 | 0.00 | 0.00 | 0.00 | 99 | 1013.0 |
| 20260509093933 | 8 | 22 | 0.0 | 4.8 | 0.00 | 0.00 | 0.00 | 99 | 1012.9 |
| 20260509093431 | 8 | 126 | 1.6 | 3.2 | 0.00 | 0.00 | 0.00 | 99 | 1012.9 |
| 20260509092929 | 8 | 51 | 3.2 | 4.8 | 0.00 | 0.00 | 0.00 | 99 | 1012.8 |
| 20260509092426 | 8 | 26 | 0.0 | 3.2 | 0.00 | 0.00 | 0.00 | 99 | 1012.9 |
| 20260509091925 | 8 | 307 | 0.0 | 4.8 | 0.00 | 0.00 | 0.00 | 99 | 1012.9 |
| 20260509091421 | 8 | 168 | 0.0 | 3.2 | 0.00 | 0.00 | 0.00 | 99 | 1013.1 |
| 20260509090918 | 8 | 328 | 0.0 | 3.2 | 0.00 | 0.00 | 0.00 | 99 | 1013.1 |
| 20260509090415 | 8 | 173 | 0.0 | 3.2 | 0.00 | 0.00 | 0.00 | 99 | 1013.2 |
| 20260509085913 | 8 | 92 | 1.6 | 3.2 | 0.00 | 0.00 | 0.00 | 99 | 1013.2 |
| 20260509085410 | 8 | 76 | 1.6 | 4.8 | 0.00 | 0.00 | 0.00 | 99 | 1013.5 |
| 20260509084906 | 8 | 57 | 3.2 | 6.4 | 0.00 | 0.00 | 0.00 | 99 | 1013.4 |
| 20260509084403 | 8 | 70 | 3.2 | 4.8 | 0.00 | 0.00 | 0.00 | 99 | 1013.4 |
| 20260509083901 | 8 | 62 | 1.6 | 3.2 | 0.00 | 0.00 | 0.00 | 99 | 1013.6 |
| 20260509083358 | 8 | 48 | 3.2 | 3.2 | 0.00 | 0.00 | 0.00 | 99 | 1013.7 |
| 20260509082854 | 8 | 73 | 0.0 | 3.2 | 0.00 | 0.00 | 0.00 | 99 | 1013.6 |
| 20260509082351 | 8 | 126 | 0.0 | 1.6 | 0.00 | 0.00 | 0.00 | 99 | 1013.8 |
| 20260509081848 | 8 | 68 | 3.2 | 4.8 | 0.00 | 0.00 | 0.00 | 99 | 1013.6 |
| 20260509081345 | 8 | 77 | 3.2 | 4.8 | 0.00 | 0.00 | 0.00 | 99 | 1013.7 |
| 20260509080843 | 8 | 32 | 0.0 | 3.2 | 0.00 | 0.00 | 0.00 | 99 | 1013.9 |
| 20260509080341 | 8 | 47 | 3.2 | 4.8 | 0.00 | 0.00 | 0.00 | 99 | 1013.7 |
| 20260509075839 | 8 | 267 | 0.0 | 3.2 | 0.00 | 0.00 | 0.00 | 99 | 1013.8 |
| 20260509075335 | 8 | 46 | 1.6 | 3.2 | 0.00 | 0.00 | 0.00 | 99 | 1013.8 |
| 20260509074833 | 8 | 56 | 1.6 | 4.8 | 0.00 | 0.00 | 0.00 | 99 | 1013.9 |
| 20260509074331 | 8 | 173 | 0.0 | 3.2 | 0.00 | 0.00 | 0.00 | 99 | 1013.9 |
| 20260509073826 | 8 | 98 | 1.6 | 4.8 | 0.00 | 0.00 | 0.00 | 99 | 1013.8 |
| 20260509073323 | 8 | 74 | 3.2 | 6.4 | 0.00 | 0.00 | 0.00 | 99 | 1013.7 |
| 20260509072820 | 8 | 72 | 3.2 | 4.8 | 0.00 | 0.00 | 0.00 | 99 | 1013.8 |
| 20260509072316 | 8 | 48 | 4.8 | 8.0 | 0.00 | 0.00 | 0.00 | 99 | 1013.7 |